Regional Weather Roundup
Issued by NWS Bismarck, ND

Home | Current Version | Previous Version | Text Only | Print | Product List | Glossary On
Versions: 1 2 3 4 5 6 7 8 9 10 11 12 13 14 15 16 17 18 19 20 21 22 23 24 25 26 27 28 29 30 31 32 33 34 35 36 37 38 39 40 41 42 43 44 45 46 47 48 49 50
000
ASUS43 KBIS 191659
RWRBIS

NWR BROADCAST TEXT
NATIONAL WEATHER SERVICE BISMARCK ND
1200 PM CDT FRI SEP 19 2014

NOTE: "FAIR" INDICATES FEW OR NO CLOUDS BELOW 12,000 FEET WITH NO
SIGNIFICANT WEATHER AND/OR OBSTRUCTIONS TO VISIBILITY.


CITY           SKY/WX    TMP DP  RH WIND       PRES   REMARKS
WILLISTON      MOSUNNY   77  47  34 W26G36    29.63S
MINOT          SUNNY     77  50  38 W14       29.57S
MINOT AFB      NOT AVBL
BISMARCK       MOSUNNY   77  58  51 W9G21     29.64S
DICKINSON      SUNNY     75  49  39 W20       29.71R
GARRISON         N/A     77  51  40 NW18G25   29.61S
HETTINGER ARPT SUNNY     76  53  44 W14       29.76R
JAMESTOWN      NOT AVBL
CARRINGTON     FAIR      73  63  68 W15G21    29.59S
CROSBY         FAIR      72  48  43 W18G26    29.61S
HARVEY         FAIR      75  57  53 W14G20    29.58R
HAZEN          FAIR      75  52  43 NW13G18   29.64S
LINTON         FAIR      77  59  53 W14G23    29.67R
MANDAN         FAIR      73  57  56 W16       29.66S
OAKES            N/A     66  66 100 S17       29.62F
RUGBY          FAIR      72  57  60 W13       29.55R
WATFORD CITY   FAIR      77  46  33 W20G30    29.64S
$$

CITY           SKY/WX    TMP DP  RH WIND       PRES   REMARKS
GRAND FORKS    LGT RAIN  66  63  90 S7        29.57R
GRAND FORKS AF NOT AVBL
DEVILS LAKE    PTSUNNY   70  61  73 SW8       29.53R
FARGO          LGT RAIN  67  61  81 S15       29.60F
CAVALIER       FAIR      68  64  88 S7        29.48F
GRAFTON        FAIR      64  64 100 SE10      29.49F
GWINNER        PTSUNNY   68  64  88 SW16G22   29.64F
LANGDON        FAIR      68  63  83 SW10      29.51F
ROLLA          FAIR      72  57  60 W12       29.55R
$$

CITY           SKY/WX    TMP DP  RH WIND       PRES   REMARKS
ABERDEEN       CLOUDY    69  64  84 SW10G18   29.66S
MOBRIDGE       MOSUNNY   77  66  68 W3        29.65S
RAPID CITY     CLOUDY    81  51  35 NW10      29.84R
GLASGOW        MOSUNNY   71  48  43 NW16      29.74R
SIDNEY         SUNNY     75  48  38 W17G23    29.70S
WOLF POINT     SUNNY     74  50  42 W17G28    29.71R
GLENDIVE       MOSUNNY   73  50  43 W21       29.76S
MILES CITY     CLOUDY    71  49  45 W15       29.81R
BAKER          MOSUNNY   74  47  38 NW21G26   29.81R
$$

CITY           SKY/WX    TMP DP  RH WIND       PRES   REMARKS
BILLINGS       MOSUNNY   69  51  52 W12       29.91S
GREAT FALLS    CLOUDY    66  46  48 SW14      29.91R
$$



USA.gov is the U.S. government's official web portal to all federal, state and local government web resources and services.